Volver al catálogo

STARLINK-30905

ActivoComunicacionesVLEO
NORAD 58356·PAYLOAD·🇺🇸 United States

Lanzado Nov 18, 2023 desde Cape Canaveral Space Force Station

Loading…

Próximos Pases (próximas 24 horas)

TLE

ActualizadoSource: CelesTrak SupGP

Época: Sep 14, 2026, 22:15 UTC

1 58356C 23177F   26257.92756944 -.00020499  00000+0 -74191-3 0  2572
2 58356  43.0041   1.7055 0002054 266.3405 348.0723 15.27611937    16

Sigue STARLINK-30905 en tiempo real con AllMySat

Download on the App Store